Terminal Aerodrome Forecast
Issued by NWS Corpus Christi, TX

Home | Current Version | Previous Version | Text Only | Print | Product List | Glossary On
Versions: 1 2 3 4 5 6 7 8 9 10 11 12 13 14 15 16 17 18 19 20 21 22 23 24 25 26 27 28 29 30 31 32
000
FTUS44 KCRP 251505 AAA
TAFVCT
TAF AMD
KVCT 251505Z 2515/2612 VRB04KT 6SM BR BKN035
     FM252000 16005KT 6SM BR SCT025 SCT035
     FM260200 17005KT 4SM BR BKN015
     FM260700 18003KT 1 1/2SM BR OVC005=

USA.gov is the U.S. government's official web portal to all federal, state and local government web resources and services.